| time (UTC) | temp F | wind direction | speed MPH | gust MPH | rain 1hr in | rain 24hr in | rain mn in | humidity % | barometer mb |
| 20260507073932 | 53 | 318 | 2.0 | 3.0 | 0.00 | 0.00 | 0.00 | 91 | 1019.8 |
| 20260507073428 | 53 | 354 | 2.0 | 3.0 | 0.00 | 0.00 | 0.00 | 91 | 1019.6 |
| 20260507072925 | 53 | 316 | 2.0 | 3.0 | 0.00 | 0.00 | 0.00 | 91 | 1019.8 |
| 20260507072422 | 53 | 296 | 1.0 | 2.0 | 0.00 | 0.00 | 0.00 | 91 | 1020.0 |
| 20260507071920 | 53 | 347 | 2.0 | 3.0 | 0.00 | 0.00 | 0.00 | 90 | 1019.8 |
| 20260507071416 | 53 | 284 | 3.0 | 5.0 | 0.00 | 0.00 | 0.00 | 90 | 1019.7 |
| 20260507070913 | 53 | 346 | 1.0 | 3.0 | 0.00 | 0.00 | 0.00 | 90 | 1019.8 |
| 20260507070410 | 53 | 324 | 0.0 | 3.0 | 0.00 | 0.00 | 0.00 | 90 | 1019.7 |
| 20260507065907 | 53 | 304 | 3.0 | 5.0 | 0.00 | 0.00 | 0.00 | 90 | 1019.7 |
| 20260507065404 | 53 | 335 | 1.0 | 5.0 | 0.00 | 0.00 | 0.00 | 90 | 1019.7 |
| 20260507064900 | 53 | 347 | 2.0 | 5.0 | 0.00 | 0.00 | 0.00 | 90 | 1019.7 |
| 20260507064359 | 53 | 298 | 3.0 | 5.0 | 0.00 | 0.00 | 0.00 | 90 | 1019.5 |
| 20260507063856 | 53 | 316 | 3.0 | 7.0 | 0.00 | 0.00 | 0.00 | 90 | 1019.7 |
| 20260507063353 | 53 | 336 | 3.0 | 6.0 | 0.00 | 0.00 | 0.00 | 90 | 1019.7 |
| 20260507062850 | 53 | 330 | 2.0 | 2.0 | 0.00 | 0.00 | 0.00 | 90 | 1019.5 |
| 20260507062347 | 53 | 323 | 3.0 | 3.0 | 0.00 | 0.00 | 0.00 | 90 | 1019.8 |
| 20260507061845 | 53 | 335 | 1.0 | 2.0 | 0.00 | 0.00 | 0.00 | 90 | 1019.7 |
| 20260507061343 | 54 | 300 | 3.0 | 6.0 | 0.00 | 0.00 | 0.00 | 90 | 1019.6 |
| 20260507060841 | 54 | 320 | 3.0 | 3.0 | 0.00 | 0.00 | 0.00 | 90 | 1019.8 |
| 20260507060337 | 54 | 303 | 3.0 | 7.0 | 0.00 | 0.00 | 0.00 | 90 | 1019.8 |
| 20260507055834 | 54 | 310 | 3.0 | 7.0 | 0.00 | 0.00 | 0.00 | 90 | 1019.8 |
| 20260507055329 | 54 | 326 | 2.0 | 6.0 | 0.00 | 0.00 | 0.00 | 89 | 1019.8 |
| 20260507054826 | 54 | 281 | 3.0 | 6.0 | 0.00 | 0.00 | 0.00 | 89 | 1019.6 |
| 20260507054322 | 54 | 351 | 5.0 | 7.0 | 0.00 | 0.00 | 0.00 | 89 | 1019.7 |
| 20260507053820 | 54 | 297 | 0.0 | 6.0 | 0.00 | 0.00 | 0.00 | 89 | 1019.5 |
| 20260507053317 | 54 | 298 | 0.0 | 5.0 | 0.00 | 0.00 | 0.00 | 88 | 1019.5 |
| 20260507052816 | 54 | 271 | 3.0 | 6.0 | 0.00 | 0.00 | 0.00 | 88 | 1019.4 |
| 20260507052312 | 55 | 291 | 5.0 | 6.0 | 0.00 | 0.00 | 0.00 | 88 | 1019.7 |
| 20260507051810 | 55 | 284 | 5.0 | 6.0 | 0.00 | 0.00 | 0.00 | 88 | 1019.5 |
| 20260507051307 | 55 | 310 | 4.0 | 6.0 | 0.00 | 0.00 | 0.00 | 88 | 1019.8 |
| 20260507050804 | 55 | 313 | 4.0 | 7.0 | 0.00 | 0.00 | 0.00 | 88 | 1019.4 |
| 20260507050300 | 55 | 293 | 3.0 | 5.0 | 0.00 | 0.00 | 0.00 | 87 | 1019.6 |
| 20260507045757 | 55 | 300 | 3.0 | 5.0 | 0.00 | 0.00 | 0.00 | 87 | 1019.7 |
| 20260507045253 | 55 | 326 | 2.0 | 9.0 | 0.00 | 0.00 | 0.00 | 87 | 1019.7 |
| 20260507044751 | 55 | 288 | 3.0 | 7.0 | 0.00 | 0.00 | 0.00 | 87 | 1019.6 |
| 20260507044247 | 55 | 299 | 5.0 | 7.0 | 0.00 | 0.00 | 0.00 | 87 | 1019.8 |
| 20260507043743 | 55 | 324 | 4.0 | 8.0 | 0.00 | 0.00 | 0.00 | 87 | 1019.5 |
| 20260507043240 | 55 | 347 | 2.0 | 5.0 | 0.00 | 0.00 | 0.00 | 86 | 1019.4 |
| 20260507042737 | 55 | 266 | 3.0 | 7.0 | 0.00 | 0.00 | 0.00 | 86 | 1019.4 |
| 20260507042232 | 55 | 307 | 3.0 | 3.0 | 0.00 | 0.00 | 0.00 | 86 | 1019.4 |
| 20260507041730 | 55 | 340 | 3.0 | 5.0 | 0.00 | 0.00 | 0.00 | 87 | 1019.5 |
| 20260507041226 | 55 | 334 | 3.0 | 6.0 | 0.00 | 0.00 | 0.00 | 87 | 1019.5 |
| 20260507040723 | 55 | 289 | 4.0 | 8.0 | 0.00 | 0.00 | 0.00 | 87 | 1019.5 |
| 20260507040219 | 55 | 258 | 6.0 | 14.0 | 0.00 | 0.00 | 0.00 | 87 | 1019.6 |
| 20260507035715 | 55 | 317 | 6.0 | 15.0 | 0.00 | 0.00 | 0.00 | 86 | 1019.5 |
| 20260507035211 | 55 | 317 | 5.0 | 11.0 | 0.00 | 0.00 | 0.00 | 86 | 1019.4 |
| 20260507034708 | 55 | 295 | 7.0 | 9.0 | 0.00 | 0.00 | 0.00 | 86 | 1019.4 |
| 20260507034205 | 55 | 278 | 4.0 | 10.0 | 0.00 | 0.00 | 0.00 | 86 | 1019.5 |
| 20260507033704 | 56 | 305 | 7.0 | 10.0 | 0.00 | 0.00 | 0.00 | 86 | 1019.5 |
| 20260507033201 | 56 | 275 | 7.0 | 13.0 | 0.00 | 0.00 | 0.00 | 85 | 1019.2 |
| 20260507032658 | 56 | 274 | 5.0 | 7.0 | 0.00 | 0.00 | 0.00 | 85 | 1019.5 |
| 20260507032153 | 56 | 0 | 3.0 | 6.0 | 0.00 | 0.00 | 0.00 | 85 | 1019.3 |
| 20260507031651 | 56 | 290 | 3.0 | 9.0 | 0.00 | 0.00 | 0.00 | 85 | 1019.3 |
| 20260507031147 | 56 | 287 | 2.0 | 5.0 | 0.00 | 0.00 | 0.00 | 85 | 1019.0 |
| 20260507030644 | 56 | 281 | 6.0 | 11.0 | 0.00 | 0.00 | 0.00 | 85 | 1018.9 |
| 20260507030142 | 57 | 313 | 3.0 | 6.0 | 0.00 | 0.00 | 0.00 | 85 | 1019.3 |
| 20260507025639 | 57 | 295 | 3.0 | 14.0 | 0.00 | 0.00 | 0.00 | 85 | 1019.2 |
| 20260507025136 | 57 | 349 | 5.0 | 9.0 | 0.00 | 0.00 | 0.00 | 85 | 1019.3 |
| 20260507024634 | 57 | 333 | 2.0 | 5.0 | 0.00 | 0.00 | 0.00 | 85 | 1019.4 |
| 20260507024131 | 57 | 283 | 3.0 | 11.0 | 0.00 | 0.00 | 0.00 | 85 | 1019.5 |
| 20260507023626 | 57 | 327 | 5.0 | 16.0 | 0.00 | 0.00 | 0.00 | 85 | 1019.3 |
| 20260507023124 | 59 | 327 | 7.0 | 8.0 | 0.00 | 0.00 | 0.00 | 84 | 1019.1 |
| 20260507022621 | 59 | 278 | 7.0 | 9.0 | 0.00 | 0.00 | 0.00 | 84 | 1019.3 |
| 20260507022116 | 59 | 321 | 7.0 | 14.0 | 0.00 | 0.00 | 0.00 | 84 | 1019.1 |
| 20260507021613 | 59 | 274 | 4.0 | 13.0 | 0.00 | 0.00 | 0.00 | 84 | 1018.8 |
| 20260507021108 | 59 | 258 | 9.0 | 16.0 | 0.00 | 0.00 | 0.00 | 84 | 1018.8 |
| 20260507020607 | 60 | 266 | 6.0 | 15.0 | 0.00 | 0.00 | 0.00 | 83 | 1018.8 |
| 20260507015602 | 61 | 313 | 3.0 | 15.0 | 0.00 | 0.00 | 0.00 | 82 | 1018.9 |
| 20260507015058 | 61 | 0 | 3.0 | 15.0 | 0.00 | 0.00 | 0.00 | 82 | 1018.6 |
| 20260507014555 | 62 | 265 | 6.0 | 14.0 | 0.00 | 0.00 | 0.00 | 80 | 1018.8 |
| 20260507014050 | 63 | 244 | 8.0 | 20.0 | 0.00 | 0.00 | 0.00 | 79 | 1018.7 |
| 20260507013548 | 63 | 294 | 5.0 | 16.0 | 0.00 | 0.00 | 0.00 | 79 | 1018.6 |
| 20260507013045 | 64 | 257 | 5.0 | 16.0 | 0.00 | 0.00 | 0.00 | 77 | 1018.7 |
| 20260507012542 | 64 | 264 | 9.0 | 15.0 | 0.00 | 0.00 | 0.00 | 76 | 1018.7 |
| 20260507012038 | 65 | 307 | 13.0 | 18.0 | 0.00 | 0.00 | 0.00 | 76 | 1018.9 |
| 20260507011536 | 65 | 275 | 9.0 | 14.0 | 0.00 | 0.00 | 0.00 | 76 | 1018.9 |
| 20260507011032 | 67 | 275 | 6.0 | 13.0 | 0.00 | 0.00 | 0.00 | 73 | 1018.7 |
| 20260507010526 | 68 | 29 | 2.0 | 11.0 | 0.00 | 0.00 | 0.00 | 72 | 1018.7 |
| 20260507010023 | 68 | 306 | 5.0 | 7.0 | 0.00 | 0.00 | 0.00 | 72 | 1018.6 |
| 20260507005520 | 69 | 262 | 5.0 | 6.0 | 0.00 | 0.00 | 0.00 | 70 | 1018.7 |
| 20260507005017 | 70 | 323 | 2.0 | 7.0 | 0.00 | 0.00 | 0.00 | 69 | 1018.7 |
| 20260507004514 | 69 | 291 | 7.0 | 8.0 | 0.00 | 0.00 | 0.00 | 71 | 1018.6 |
| 20260507004011 | 69 | 329 | 5.0 | 13.0 | 0.00 | 0.00 | 0.00 | 71 | 1018.6 |
| 20260507003506 | 69 | 307 | 1.0 | 8.0 | 0.00 | 0.00 | 0.00 | 71 | 1018.7 |
| 20260507003001 | 70 | 357 | 4.0 | 11.0 | 0.00 | 0.00 | 0.00 | 71 | 1018.6 |
| 20260507002458 | 70 | 288 | 3.0 | 9.0 | 0.00 | 0.00 | 0.00 | 70 | 1018.6 |
| 20260507001955 | 71 | 335 | 5.0 | 9.0 | 0.00 | 0.00 | 0.00 | 70 | 1018.8 |
| 20260507001451 | 71 | 286 | 9.0 | 11.0 | 0.00 | 0.00 | 0.00 | 71 | 1018.6 |
| 20260507000949 | 72 | 323 | 4.0 | 10.0 | 0.00 | 0.00 | 0.00 | 70 | 1018.4 |
| 20260507000445 | 74 | 282 | 6.0 | 11.0 | 0.00 | 0.00 | 0.00 | 67 | 1018.7 |
| 20260506235940 | 74 | 302 | 7.0 | 10.0 | 0.00 | 0.00 | 0.00 | 65 | 1018.7 |
| 20260506235438 | 71 | 302 | 5.0 | 9.0 | 0.00 | 0.00 | 0.00 | 68 | 1018.4 |
| 20260506234933 | 71 | 349 | 4.0 | 13.0 | 0.00 | 0.00 | 0.00 | 69 | 1018.6 |
| 20260506234431 | 71 | 301 | 8.0 | 13.0 | 0.00 | 0.00 | 0.00 | 68 | 1018.7 |
| 20260506233929 | 73 | 272 | 7.0 | 10.0 | 0.00 | 0.00 | 0.00 | 67 | 1018.8 |
| 20260506233425 | 74 | 194 | 5.0 | 13.0 | 0.00 | 0.00 | 0.00 | 66 | 1018.7 |
| 20260506232921 | 77 | 1 | 1.0 | 3.0 | 0.00 | 0.00 | 0.00 | 62 | 1018.6 |
| 20260506232418 | 73 | 312 | 3.0 | 10.0 | 0.00 | 0.00 | 0.00 | 67 | 1018.5 |
| 20260506231914 | 76 | 296 | 2.0 | 9.0 | 0.00 | 0.00 | 0.00 | 64 | 1018.6 |
| 20260506231411 | 74 | 316 | 5.0 | 9.0 | 0.00 | 0.00 | 0.00 | 68 | 1018.7 |
| 20260506230909 | 76 | 213 | 2.0 | 7.0 | 0.00 | 0.00 | 0.00 | 65 | 1018.7 |
| 20260506230405 | 77 | 238 | 7.0 | 9.0 | 0.00 | 0.00 | 0.00 | 65 | 1018.5 |
| 20260506225901 | 76 | 345 | 0.0 | 2.0 | 0.00 | 0.00 | 0.00 | 61 | 1018.9 |
| 20260506225359 | 72 | 103 | 5.0 | 6.0 | 0.00 | 0.00 | 0.00 | 67 | 1018.8 |
| 20260506224855 | 71 | 65 | 2.0 | 5.0 | 0.00 | 0.00 | 0.00 | 68 | 1018.9 |
| 20260506224353 | 73 | 29 | 1.0 | 5.0 | 0.00 | 0.00 | 0.00 | 65 | 1018.9 |
| 20260506223849 | 73 | 320 | 0.0 | 0.0 | 0.00 | 0.00 | 0.00 | 65 | 1018.9 |
| 20260506223344 | 74 | 95 | 1.0 | 6.0 | 0.00 | 0.00 | 0.00 | 65 | 1019.0 |
| 20260506222842 | 73 | 40 | 4.0 | 5.0 | 0.00 | 0.00 | 0.00 | 65 | 1018.8 |
| 20260506222337 | 73 | 207 | 6.0 | 7.0 | 0.00 | 0.00 | 0.00 | 66 | 1018.8 |
| 20260506221835 | 73 | 136 | 5.0 | 7.0 | 0.00 | 0.00 | 0.00 | 66 | 1019.1 |
| 20260506221333 | 73 | 78 | 0.0 | 5.0 | 0.00 | 0.00 | 0.00 | 64 | 1019.1 |
| 20260506220830 | 73 | 10 | 0.0 | 3.0 | 0.00 | 0.00 | 0.00 | 64 | 1019.3 |
| 20260506220325 | 73 | 169 | 5.0 | 7.0 | 0.00 | 0.00 | 0.00 | 65 | 1019.4 |
| 20260506215822 | 73 | 121 | 3.0 | 6.0 | 0.00 | 0.00 | 0.00 | 63 | 1019.3 |
| 20260506215318 | 74 | 74 | 2.0 | 5.0 | 0.00 | 0.00 | 0.00 | 62 | 1019.4 |
| 20260506214814 | 74 | 144 | 4.0 | 9.0 | 0.00 | 0.00 | 0.00 | 64 | 1019.4 |
| 20260506214311 | 74 | 39 | 2.0 | 5.0 | 0.00 | 0.00 | 0.00 | 62 | 1019.6 |
| 20260506213810 | 72 | 93 | 1.0 | 10.0 | 0.00 | 0.00 | 0.00 | 65 | 1019.4 |
| 20260506213306 | 73 | 118 | 4.0 | 8.0 | 0.00 | 0.00 | 0.00 | 65 | 1019.7 |
| 20260506212804 | 74 | 151 | 6.0 | 10.0 | 0.00 | 0.00 | 0.00 | 64 | 1019.7 |
| 20260506212259 | 74 | 177 | 6.0 | 8.0 | 0.00 | 0.00 | 0.00 | 63 | 1019.6 |
| 20260506211754 | 73 | 229 | 5.0 | 7.0 | 0.00 | 0.00 | 0.00 | 64 | 1019.7 |
| 20260506211251 | 73 | 138 | 2.0 | 6.0 | 0.00 | 0.00 | 0.00 | 64 | 1019.6 |
| 20260506210748 | 71 | 118 | 4.0 | 9.0 | 0.00 | 0.00 | 0.00 | 66 | 1019.7 |
| 20260506210245 | 73 | 148 | 2.0 | 7.0 | 0.00 | 0.00 | 0.00 | 67 | 1019.6 |
| 20260506205742 | 73 | 142 | 3.0 | 6.0 | 0.00 | 0.00 | 0.00 | 65 | 1019.5 |
| 20260506205238 | 71 | 63 | 4.0 | 8.0 | 0.00 | 0.00 | 0.00 | 68 | 1019.8 |
| 20260506204735 | 71 | 148 | 0.0 | 10.0 | 0.00 | 0.00 | 0.00 | 68 | 1019.8 |
| 20260506204232 | 72 | 164 | 3.0 | 8.0 | 0.00 | 0.00 | 0.00 | 68 | 1019.8 |
| 20260506203730 | 71 | 149 | 3.0 | 8.0 | 0.00 | 0.00 | 0.00 | 69 | 1019.9 |
| 20260506203227 | 72 | 100 | 3.0 | 5.0 | 0.00 | 0.00 | 0.00 | 68 | 1020.0 |
| 20260506202725 | 72 | 124 | 2.0 | 9.0 | 0.00 | 0.00 | 0.00 | 67 | 1020.0 |
| 20260506202221 | 70 | 178 | 4.0 | 10.0 | 0.00 | 0.00 | 0.00 | 70 | 1020.1 |
| 20260506201718 | 69 | 168 | 3.0 | 8.0 | 0.00 | 0.00 | 0.00 | 71 | 1020.1 |
| 20260506201214 | 69 | 148 | 3.0 | 7.0 | 0.00 | 0.00 | 0.00 | 72 | 1020.2 |
| 20260506200711 | 72 | 118 | 1.0 | 6.0 | 0.00 | 0.00 | 0.00 | 68 | 1020.1 |
| 20260506200208 | 70 | 107 | 3.0 | 6.0 | 0.00 | 0.00 | 0.00 | 71 | 1020.2 |
| 20260506195704 | 70 | 82 | 3.0 | 7.0 | 0.00 | 0.00 | 0.00 | 71 | 1020.1 |
| 20260506195201 | 72 | 118 | 3.0 | 5.0 | 0.00 | 0.00 | 0.00 | 69 | 1020.3 |
| 20260506194658 | 70 | 143 | 4.0 | 9.0 | 0.00 | 0.00 | 0.00 | 71 | 1020.2 |
| 20260506194154 | 69 | 134 | 8.0 | 13.0 | 0.00 | 0.00 | 0.00 | 72 | 1020.4 |
| 20260506193652 | 69 | 133 | 3.0 | 7.0 | 0.00 | 0.00 | 0.00 | 74 | 1020.5 |
| 20260506193149 | 70 | 96 | 3.0 | 7.0 | 0.00 | 0.00 | 0.00 | 73 | 1020.5 |
| 20260506192646 | 69 | 157 | 4.0 | 6.0 | 0.00 | 0.00 | 0.00 | 72 | 1020.4 |
| 20260506192142 | 69 | 226 | 4.0 | 7.0 | 0.00 | 0.00 | 0.00 | 72 | 1020.6 |
| 20260506191639 | 69 | 164 | 2.0 | 7.0 | 0.00 | 0.00 | 0.00 | 71 | 1020.8 |
| 20260506191135 | 71 | 9 | 3.0 | 7.0 | 0.00 | 0.00 | 0.00 | 71 | 1020.8 |
| 20260506190633 | 69 | 176 | 3.0 | 8.0 | 0.00 | 0.00 | 0.00 | 73 | 1020.8 |
| 20260506190129 | 68 | 39 | 1.0 | 7.0 | 0.00 | 0.00 | 0.00 | 73 | 1021.1 |
| 20260506185626 | 71 | 133 | 3.0 | 6.0 | 0.00 | 0.00 | 0.00 | 70 | 1020.9 |
| 20260506185122 | 69 | 177 | 3.0 | 5.0 | 0.00 | 0.00 | 0.00 | 71 | 1020.9 |
| 20260506184620 | 71 | 105 | 4.0 | 6.0 | 0.00 | 0.00 | 0.00 | 70 | 1020.9 |
| 20260506184117 | 70 | 343 | 0.0 | 6.0 | 0.00 | 0.00 | 0.00 | 71 | 1020.9 |
| 20260506183614 | 68 | 157 | 2.0 | 5.0 | 0.00 | 0.00 | 0.00 | 72 | 1020.8 |
| 20260506183110 | 67 | 45 | 0.0 | 5.0 | 0.00 | 0.00 | 0.00 | 73 | 1021.1 |
| 20260506182608 | 68 | 190 | 5.0 | 6.0 | 0.00 | 0.00 | 0.00 | 73 | 1021.0 |
| 20260506182104 | 67 | 117 | 3.0 | 6.0 | 0.00 | 0.00 | 0.00 | 73 | 1021.1 |
| 20260506181602 | 66 | 109 | 6.0 | 7.0 | 0.00 | 0.00 | 0.00 | 74 | 1021.0 |
| 20260506181059 | 66 | 60 | 1.0 | 6.0 | 0.00 | 0.00 | 0.00 | 74 | 1021.0 |
| 20260506180555 | 64 | 300 | 0.0 | 6.0 | 0.00 | 0.00 | 0.00 | 76 | 1020.9 |
| 20260506180052 | 65 | 28 | 2.0 | 5.0 | 0.00 | 0.00 | 0.00 | 76 | 1021.0 |
| 20260506175548 | 66 | 117 | 2.0 | 3.0 | 0.00 | 0.00 | 0.00 | 73 | 1020.7 |
| 20260506175045 | 65 | 59 | 0.0 | 5.0 | 0.00 | 0.00 | 0.00 | 74 | 1020.9 |
| 20260506174544 | 66 | 47 | 3.0 | 7.0 | 0.00 | 0.00 | 0.00 | 75 | 1021.1 |
| 20260506174039 | 66 | 159 | 4.0 | 6.0 | 0.00 | 0.00 | 0.00 | 75 | 1021.2 |
| 20260506173537 | 64 | 72 | 1.0 | 3.0 | 0.00 | 0.00 | 0.00 | 76 | 1021.1 |
| 20260506173034 | 65 | 71 | 1.0 | 3.0 | 0.00 | 0.00 | 0.00 | 77 | 1021.0 |
| 20260506172531 | 63 | 39 | 2.0 | 7.0 | 0.00 | 0.00 | 0.00 | 78 | 1021.0 |
| 20260506172027 | 63 | 35 | 0.0 | 6.0 | 0.00 | 0.00 | 0.00 | 78 | 1020.9 |
| 20260506171525 | 63 | 64 | 1.0 | 5.0 | 0.00 | 0.00 | 0.00 | 78 | 1021.1 |
| 20260506171022 | 64 | 131 | 4.0 | 6.0 | 0.00 | 0.00 | 0.00 | 78 | 1021.2 |
| 20260506170520 | 63 | 12 | 2.0 | 6.0 | 0.00 | 0.00 | 0.00 | 76 | 1021.1 |
| 20260506170018 | 63 | 121 | 1.0 | 2.0 | 0.00 | 0.00 | 0.00 | 77 | 1021.0 |
| 20260506165516 | 63 | 143 | 3.0 | 5.0 | 0.00 | 0.00 | 0.00 | 79 | 1021.1 |
| 20260506165011 | 62 | 27 | 2.0 | 5.0 | 0.00 | 0.00 | 0.00 | 79 | 1021.1 |
| 20260506164508 | 63 | 81 | 2.0 | 2.0 | 0.00 | 0.00 | 0.00 | 77 | 1021.1 |
| 20260506164006 | 62 | 107 | 1.0 | 5.0 | 0.00 | 0.00 | 0.00 | 78 | 1021.2 |
| 20260506163501 | 63 | 224 | 3.0 | 3.0 | 0.00 | 0.00 | 0.00 | 77 | 1021.2 |
| 20260506162956 | 63 | 142 | 0.0 | 1.0 | 0.00 | 0.00 | 0.00 | 77 | 1021.1 |
| 20260506162454 | 62 | 350 | 0.0 | 1.0 | 0.00 | 0.00 | 0.00 | 78 | 1021.1 |
| 20260506161951 | 62 | 357 | 0.0 | 0.0 | 0.00 | 0.00 | 0.00 | 78 | 1021.3 |
| 20260506161449 | 61 | 33 | 0.0 | 3.0 | 0.00 | 0.00 | 0.00 | 79 | 1021.1 |
| 20260506160946 | 60 | 92 | 1.0 | 2.0 | 0.00 | 0.00 | 0.00 | 80 | 1021.2 |
| 20260506160443 | 61 | 152 | 3.0 | 3.0 | 0.00 | 0.00 | 0.00 | 80 | 1021.1 |
| 20260506155940 | 62 | 13 | 0.0 | 1.0 | 0.00 | 0.00 | 0.00 | 79 | 1021.0 |
| 20260506155438 | 62 | 13 | 0.0 | 0.0 | 0.00 | 0.00 | 0.00 | 79 | 1021.2 |
| 20260506153605 | 60 | 0 | 0.0 | 1.0 | 0.00 | 0.00 | 0.00 | 82 | 1021.1 |
| 20260506153102 | 60 | 15 | 0.0 | 0.0 | 0.00 | 0.00 | 0.00 | 82 | 1020.9 |
| 20260506152559 | 59 | 6 | 0.0 | 1.0 | 0.00 | 0.00 | 0.00 | 84 | 1021.2 |
| 20260506152057 | 59 | 8 | 0.0 | 1.0 | 0.00 | 0.00 | 0.00 | 84 | 1021.2 |
| 20260506151555 | 58 | 286 | 4.0 | 5.0 | 0.00 | 0.00 | 0.00 | 84 | 1020.9 |
| 20260506151052 | 57 | 347 | 3.0 | 3.0 | 0.00 | 0.00 | 0.00 | 85 | 1021.1 |
| 20260506150548 | 57 | 327 | 0.0 | 5.0 | 0.00 | 0.00 | 0.00 | 86 | 1021.1 |
| 20260506150045 | 57 | 345 | 0.0 | 2.0 | 0.00 | 0.00 | 0.00 | 86 | 1020.8 |
| 20260506145542 | 57 | 351 | 1.0 | 5.0 | 0.00 | 0.00 | 0.00 | 86 | 1021.0 |
| 20260506145039 | 56 | 354 | 1.0 | 3.0 | 0.00 | 0.00 | 0.00 | 86 | 1020.9 |
| 20260506144536 | 56 | 330 | 1.0 | 3.0 | 0.00 | 0.00 | 0.00 | 86 | 1020.8 |
| 20260506144033 | 56 | 351 | 0.0 | 1.0 | 0.00 | 0.00 | 0.00 | 87 | 1021.1 |
| 20260506143531 | 56 | 337 | 2.0 | 2.0 | 0.00 | 0.00 | 0.00 | 86 | 1021.0 |
| 20260506143029 | 55 | 311 | 2.0 | 6.0 | 0.00 | 0.00 | 0.00 | 86 | 1020.7 |
| 20260506142526 | 55 | 279 | 3.0 | 5.0 | 0.00 | 0.00 | 0.00 | 86 | 1020.7 |
| 20260506142024 | 55 | 19 | 2.0 | 3.0 | 0.00 | 0.00 | 0.00 | 86 | 1020.9 |
| 20260506141522 | 55 | 352 | 1.0 | 2.0 | 0.00 | 0.00 | 0.00 | 87 | 1020.8 |
| 20260506141020 | 55 | 354 | 0.0 | 2.0 | 0.00 | 0.00 | 0.00 | 87 | 1020.7 |
| 20260506140517 | 55 | 312 | 1.0 | 2.0 | 0.00 | 0.00 | 0.00 | 87 | 1020.5 |
| 20260506140015 | 55 | 299 | 3.0 | 8.0 | 0.00 | 0.00 | 0.00 | 87 | 1020.7 |
| 20260506135511 | 55 | 331 | 1.0 | 2.0 | 0.00 | 0.00 | 0.00 | 87 | 1020.4 |
| 20260506135007 | 55 | 351 | 0.0 | 2.0 | 0.00 | 0.00 | 0.00 | 87 | 1020.6 |
| 20260506134503 | 55 | 347 | 1.0 | 2.0 | 0.00 | 0.00 | 0.00 | 87 | 1020.5 |
| 20260506134000 | 55 | 309 | 3.0 | 3.0 | 0.00 | 0.00 | 0.00 | 87 | 1020.5 |
| 20260506133457 | 55 | 337 | 1.0 | 3.0 | 0.00 | 0.00 | 0.00 | 87 | 1020.5 |
| 20260506132954 | 55 | 327 | 4.0 | 5.0 | 0.00 | 0.00 | 0.00 | 87 | 1020.5 |
| 20260506132451 | 55 | 280 | 4.0 | 6.0 | 0.00 | 0.00 | 0.00 | 87 | 1020.4 |
| 20260506131948 | 55 | 348 | 0.0 | 2.0 | 0.00 | 0.00 | 0.00 | 87 | 1020.5 |
| 20260506131445 | 55 | 283 | 3.0 | 3.0 | 0.00 | 0.00 | 0.00 | 87 | 1020.3 |
| 20260506130942 | 55 | 348 | 0.0 | 2.0 | 0.00 | 0.00 | 0.00 | 87 | 1020.6 |
| 20260506130438 | 55 | 349 | 1.0 | 2.0 | 0.00 | 0.00 | 0.00 | 87 | 1020.3 |
| 20260506125936 | 55 | 344 | 1.0 | 6.0 | 0.00 | 0.00 | 0.00 | 87 | 1020.3 |
| 20260506125434 | 55 | 320 | 1.0 | 3.0 | 0.00 | 0.00 | 0.00 | 87 | 1020.3 |
| 20260506124932 | 55 | 358 | 1.0 | 2.0 | 0.00 | 0.00 | 0.00 | 87 | 1020.4 |
| 20260506124429 | 55 | 310 | 2.0 | 2.0 | 0.00 | 0.00 | 0.00 | 87 | 1020.2 |
| 20260506123927 | 55 | 336 | 1.0 | 2.0 | 0.00 | 0.00 | 0.00 | 87 | 1020.1 |
| 20260506123425 | 55 | 342 | 2.0 | 3.0 | 0.00 | 0.00 | 0.00 | 86 | 1020.3 |
| 20260506122922 | 55 | 275 | 4.0 | 6.0 | 0.00 | 0.00 | 0.00 | 86 | 1020.3 |
| 20260506122419 | 55 | 309 | 3.0 | 6.0 | 0.00 | 0.00 | 0.00 | 86 | 1020.1 |
| 20260506121918 | 55 | 289 | 5.0 | 6.0 | 0.00 | 0.00 | 0.00 | 86 | 1020.2 |
| 20260506121414 | 55 | 318 | 1.0 | 2.0 | 0.00 | 0.00 | 0.00 | 86 | 1020.2 |
| 20260506120911 | 55 | 355 | 1.0 | 2.0 | 0.00 | 0.00 | 0.00 | 86 | 1020.0 |
| 20260506120409 | 55 | 289 | 5.0 | 6.0 | 0.00 | 0.00 | 0.00 | 86 | 1020.1 |
| 20260506115906 | 55 | 284 | 2.0 | 3.0 | 0.00 | 0.00 | 0.00 | 86 | 1020.0 |
| 20260506115404 | 55 | 8 | 1.0 | 2.0 | 0.00 | 0.00 | 0.00 | 86 | 1020.0 |
| 20260506114902 | 55 | 328 | 3.0 | 7.0 | 0.00 | 0.00 | 0.00 | 86 | 1019.9 |
| 20260506114359 | 55 | 338 | 2.0 | 6.0 | 0.00 | 0.00 | 0.00 | 86 | 1020.0 |
| 20260506113858 | 55 | 355 | 3.0 | 3.0 | 0.00 | 0.00 | 0.00 | 86 | 1019.9 |
| 20260506113355 | 55 | 336 | 2.0 | 7.0 | 0.00 | 0.00 | 0.00 | 86 | 1019.9 |
| 20260506112851 | 55 | 318 | 1.0 | 3.0 | 0.00 | 0.00 | 0.00 | 86 | 1019.9 |
| 20260506112348 | 55 | 358 | 1.0 | 6.0 | 0.00 | 0.00 | 0.00 | 86 | 1019.8 |
| 20260506111845 | 55 | 294 | 3.0 | 3.0 | 0.00 | 0.00 | 0.00 | 86 | 1019.7 |
| 20260506111344 | 55 | 306 | 3.0 | 6.0 | 0.00 | 0.00 | 0.00 | 86 | 1019.7 |
| 20260506110841 | 55 | 294 | 4.0 | 7.0 | 0.00 | 0.00 | 0.00 | 86 | 1019.7 |
| 20260506110338 | 55 | 322 | 3.0 | 3.0 | 0.00 | 0.00 | 0.00 | 86 | 1019.5 |
| 20260506105835 | 55 | 313 | 2.0 | 2.0 | 0.00 | 0.00 | 0.00 | 86 | 1019.7 |
| 20260506105331 | 55 | 357 | 1.0 | 2.0 | 0.00 | 0.00 | 0.00 | 86 | 1019.8 |
| 20260506104829 | 55 | 350 | 1.0 | 1.0 | 0.00 | 0.00 | 0.00 | 86 | 1019.5 |
| 20260506104326 | 55 | 354 | 0.0 | 1.0 | 0.00 | 0.00 | 0.00 | 86 | 1019.6 |
| 20260506103824 | 55 | 359 | 0.0 | 1.0 | 0.00 | 0.00 | 0.00 | 86 | 1019.5 |
| 20260506103321 | 55 | 321 | 1.0 | 5.0 | 0.00 | 0.00 | 0.00 | 86 | 1019.7 |
| 20260506102819 | 55 | 299 | 3.0 | 3.0 | 0.00 | 0.00 | 0.00 | 86 | 1019.6 |
| 20260506102316 | 55 | 303 | 3.0 | 3.0 | 0.00 | 0.00 | 0.00 | 86 | 1019.4 |
| 20260506101814 | 55 | 0 | 0.0 | 5.0 | 0.00 | 0.00 | 0.00 | 86 | 1019.6 |
| 20260506101309 | 55 | 0 | 1.0 | 6.0 | 0.00 | 0.00 | 0.00 | 86 | 1019.6 |
| 20260506100808 | 55 | 354 | 2.0 | 2.0 | 0.00 | 0.00 | 0.00 | 86 | 1019.5 |
| 20260506100306 | 55 | 7 | 1.0 | 3.0 | 0.00 | 0.00 | 0.00 | 86 | 1019.4 |
| 20260506095804 | 55 | 343 | 1.0 | 5.0 | 0.00 | 0.00 | 0.00 | 86 | 1019.5 |
| 20260506095300 | 55 | 351 | 1.0 | 3.0 | 0.00 | 0.00 | 0.00 | 86 | 1019.5 |
| 20260506094757 | 55 | 311 | 3.0 | 3.0 | 0.00 | 0.00 | 0.00 | 86 | 1019.5 |
| 20260506094255 | 55 | 340 | 1.0 | 1.0 | 0.00 | 0.00 | 0.00 | 86 | 1019.6 |
| 20260506093754 | 55 | 343 | 1.0 | 1.0 | 0.00 | 0.00 | 0.00 | 86 | 1019.5 |
| 20260506093250 | 55 | 352 | 0.0 | 2.0 | 0.00 | 0.00 | 0.00 | 86 | 1019.6 |
| 20260506092748 | 55 | 357 | 0.0 | 1.0 | 0.00 | 0.00 | 0.00 | 86 | 1019.6 |
| 20260506092246 | 55 | 358 | 0.0 | 0.0 | 0.00 | 0.00 | 0.00 | 86 | 1019.7 |
| 20260506091743 | 55 | 356 | 0.0 | 2.0 | 0.00 | 0.00 | 0.00 | 86 | 1019.5 |
| 20260506091240 | 55 | 354 | 0.0 | 1.0 | 0.00 | 0.00 | 0.00 | 86 | 1019.5 |
| 20260506090738 | 55 | 336 | 1.0 | 2.0 | 0.00 | 0.00 | 0.00 | 86 | 1019.6 |
| 20260506090235 | 55 | 312 | 1.0 | 2.0 | 0.00 | 0.00 | 0.00 | 86 | 1019.3 |
| 20260506085732 | 55 | 309 | 1.0 | 2.0 | 0.00 | 0.00 | 0.00 | 86 | 1019.3 |
| 20260506085228 | 55 | 354 | 0.0 | 5.0 | 0.00 | 0.00 | 0.00 | 86 | 1019.7 |
| 20260506084725 | 55 | 354 | 0.0 | 5.0 | 0.00 | 0.00 | 0.00 | 86 | 1019.7 |
| 20260506084221 | 55 | 316 | 2.0 | 5.0 | 0.00 | 0.00 | 0.00 | 86 | 1019.3 |
| 20260506083718 | 55 | 8 | 1.0 | 3.0 | 0.00 | 0.00 | 0.00 | 86 | 1019.5 |
| 20260506083216 | 55 | 288 | 2.0 | 3.0 | 0.00 | 0.00 | 0.00 | 86 | 1019.6 |
| 20260506082713 | 55 | 292 | 3.0 | 5.0 | 0.00 | 0.00 | 0.00 | 86 | 1019.6 |
| 20260506082208 | 55 | 328 | 0.0 | 1.0 | 0.00 | 0.00 | 0.00 | 86 | 1019.3 |
| 20260506081706 | 55 | 324 | 2.0 | 3.0 | 0.00 | 0.00 | 0.00 | 86 | 1019.6 |
| 20260506081204 | 55 | 339 | 1.0 | 3.0 | 0.00 | 0.00 | 0.00 | 86 | 1019.3 |
| 20260506080701 | 55 | 338 | 1.0 | 3.0 | 0.00 | 0.00 | 0.00 | 86 | 1019.3 |
| 20260506080158 | 55 | 291 | 3.0 | 5.0 | 0.00 | 0.00 | 0.00 | 86 | 1019.4 |